Location: Roanoke
(37.2710°N, 79.9420°W)
Time: 16:00:31
(UTC-05:00)

S-56A Canister/Altair - Pass Details

Date: 28 November 2019
Orbit: 633 x 2499 km, 38.9° (Epoch: 10 December)

Event Time Altitude Azimuth Distance (km) Brightness Sun altitude
Rises 13:12:42 0° 228° (SW) 6,163 13.0 29.4°
Reaches altitude 10° 13:16:52 10° 225° (SW) 5,148 12.9 29.2°
Maximum altitude 13:31:17 59° 151° (SSE) 2,467 10.9 28.2°
Drops below altitude 10° 13:42:23 10° 76° (ENE) 4,049 10.9 27.3°
Sets 13:45:14 0° 72° (ENE) 4,813 11.2 27.0°
